Location: Bothwell
(42.3833°S, 147.0000°E)
Time: 04:33:04
(UTC+11:00)

ITUPSAT 1 - Pass Details

Date: 30 September 2022
Orbit: 700 x 710 km, 98.5° (Epoch: 29 November)

Event Time Altitude Azimuth Distance (km) Brightness Sun altitude
Exits shadow 21:05:15 12° 314° (NW) 2,052 ? -29.7°
Maximum altitude 21:08:11 20° 273° (W) 1,647 ? -30.1°
Drops below altitude 10° 21:11:41 10° 226° (SW) 2,215 ? -30.6°
Sets 21:14:35 0° 209° (SSW) 3,146 ? -31.0°
